Powrót do katalogu

FENGYUN 1C DEB

AktywnySSO
NORAD 37917·DEBRIS·🇨🇳 China

Wystrzelony May 10, 1999 z Taiyuan Satellite Launch Center

Loading…

Następne Przeloty (najbliższe 24 godziny)

TLE

ŚwieżeSource: Space-Track

Epoka: Sep 12, 2026, 12:21 UTC

1 37917U 99025ENS 26255.51467947  .00000992  00000-0  53182-3 0  9997
2 37917  98.9319 358.5059 0045609 353.5469   6.5111 14.14882128676947

Śledź FENGYUN 1C DEB w czasie rzeczywistym z AllMySat

Download on the App Store